Location: Austin
(30.3000°N, 97.7500°W)
Time: 21:54:40
(UTC-06:00)

USA 238 - Pass Details

Date: 03 December 2025
Orbit: 887 x 1324 km, 63.4° (Epoch: 24 November)

Event Time Altitude Azimuth Distance (km) Brightness Sun altitude
Exits shadow 06:19:55 - 320° (NW) 3,356 5.8 -11.2°
Reaches altitude 10° 06:20:24 10° 318° (NW) 3,199 5.7 -11.1°
Maximum altitude 06:27:51 49° 247° (WSW) 1,620 4.4 -9.6°
Drops below altitude 10° 06:35:38 10° 175° (S) 3,341 6.6 -8.0°
Sets 06:38:37 0° 170° (S) 4,309 7.3 -7.4°
